GFSGL_con_mlcape_084.txt.gz
CAPE
83 66 34 3 0 0 0 0 36 190 305 469 590 685 804 946 898 773 540 791 773 870 824 805 809 777 672 722 658 847 744 706 982 1024 685 890 1230 1808 1669 1658 1787 2118 1989
33 84 60 10 0 0 0 0 0 70 238 503 598 615 714 843 914 918 731 522 453 633 736 778 707 808 861 970 1203 1245 1009 901 896 1032 1066 1263 1666 1664 1630 1721 1739 1835 1834
0 0 36 28 7 0 0 0 0 0 0 38 180 594 670 654 730 795 874 786 730 708 778 862 901 1030 998 979 973 1080 1375 1408 1250 1187 1230 1543 1593 1532 1713 1601 1474 1620 1739
0 0 0 0 0 0 0 0 0 0 0 0 49 250 690 647 732 759 757 839 854 832 771 851 913 931 1022 1128 1334 1253 1149 1291 1401 1454 1379 1280 1266 1511 1529 1346 1259 1822 1546
25 21 4 0 0 0 0 0 0 0 0 0 13 110 414 761 759 716 747 760 849 809 849 854 926 990 975 1011 1222 1516 1548 1547 1560 1514 1428 1375 1298 1204 1218 1552 1509 1577 1537
6 39 42 11 0 0 0 0 0 0 0 0 0 0 125 466 795 738 845 854 874 784 803 890 955 912 892 759 683 853 1276 1492 1550 1558 1473 1271 1328 1373 1543 1517 1469 1613 1504
18 35 91 98 45 11 0 0 0 0 0 0 0 0 0 167 358 593 709 959 908 792 820 918 899 903 803 854 719 571 590 667 939 1368 1310 1426 1456 1508 1392 1219 1482 1424 1270
128 241 175 150 119 100 46 0 0 0 0 0 0 0 0 0 25 172 379 703 905 890 857 912 906 965 968 950 923 901 937 953 720 633 830 981 1105 1097 1202 1295 1235 1122 1215
23 100 269 287 243 219 216 172 23 0 0 0 0 0 0 0 0 0 18 339 543 728 894 964 920 953 935 767 913 844 851 878 924 696 794 891 850 677 781 851 806 814 945
0 0 0 0 53 451 398 378 283 108 23 0 0 0 0 38 1 0 0 3 14 79 353 442 344 702 741 624 735 692 725 658 957 951 897 762 657 703 488 489 754 771 926
0 0 0 0 0 9 517 523 493 400 331 198 119 35 0 0 13 0 0 153 141 39 16 74 312 75 162 271 427 739 614 771 929 869 887 829 779 834 894 714 539 694 962
0 0 0 0 0 0 58 749 710 561 568 580 526 482 339 197 52 24 0 53 397 395 290 387 412 175 21 71 53 136 376 416 660 664 622 549 583 612 618 577 745 790 963
0 0 0 0 0 0 0 67 745 892 832 852 851 863 850 707 462 229 172 126 156 457 601 578 573 435 277 242 100 263 163 136 217 359 473 459 551 573 559 705 823 952 1076
0 0 0 0 0 0 0 46 420 975 1019 969 971 1048 1059 1000 920 728 318 111 83 86 401 621 791 833 714 721 606 388 204 263 383 527 649 684 591 637 710 665 663 798 855
0 0 0 0 0 0 0 0 192 1318 1271 1263 1217 1193 1182 1169 1202 1039 877 605 441 356 420 473 746 884 934 906 835 791 736 556 490 533 626 739 739 712 778 646 733 863 1033
0 0 0 0 0 0 0 0 12 555 1078 1101 1147 1276 1267 1182 1105 968 886 726 671 376 292 754 779 809 965 932 937 1006 683 453 541 670 699 711 822 881 940 774 826 1134 1238
0 0 0 0 0 0 0 0 37 110 475 974 888 867 981 1380 913 868 796 693 569 217 992 905 1044 1049 890 964 1088 965 867 803 850 824 866 885 821 888 919 894 985 1114 1107
0 0 0 0 0 0 0 0 1 36 365 1424 1060 1016 828 867 746 833 834 248 396 90 879 1205 1301 1191 1145 1110 1242 1335 1282 1268 1241 1273 1211 1153 1027 1048 972 934 934 1148 1668
0 0 0 0 0 0 0 0 1 10 180 625 1674 919 584 386 342 225 117 1049 1123 980 753 1002 1208 1405 1263 1220 1368 1243 1261 1406 1426 1390 1227 1134 1151 1159 1334 1429 1486 1666 1661
0 0 0 3 1 1 0 0 0 0 53 612 1142 1809 785 414 647 587 200 281 841 1053 1000 633 615 713 756 876 959 1069 1157 1148 1109 1117 1150 1189 1302 1316 1466 1487 1414 1166 864
1 0 1 3 4 2 0 0 0 0 0 14 76 18 30 671 655 509 186 5 3 45 10 1 1 0 1 0 0 19 153 161 109 159 283 338 235 492 547 388 434 342 215
0 1 2 4 4 5 4 3 2 2 2 0 4 4 3 1 2 4 7 9 12 11 11 4 4 8 11 8 6 5 3 3 3 3 1 1 0 0 0 0 39 47 36
1 1 3 3 5 5 5 4 3 4 4 6 7 6 6 7 10 9 10 11 10 9 6 12 1 0 1 9 6 10 7 4 2 2 0 1 2 1 0 1 0 0 30
2 2 5 5 5 5 5 5 4 6 6 5 8 10 12 12 11 11 8 6 6 7 9 8 6 3 4 2 0 0 0 0 1 3 2 1 2 2 2 2 3 1 1
3 3 4 4 5 6 5 5 4 4 6 7 8 7 7 7 7 6 5 5 5 3 3 5 3 2 1 0 0 0 0 0 0 0 0 0 0 0 1 4 3 4 1
2 3 3 3 4 4 4 5 5 5 5 5 5 5 6 7 6 5 4 5 4 3 4 4 2 1 1 0 0 0 0 0 0 1 0 0 0 0 0 0 0 0 0

GFSGL_con_mlcape_087.txt.gz
CAPE
279 440 428 320 275 151 143 277 701 828 835 938 1258 1388 1384 1424 1632 1588 1483 1573 1357 1228 1566 1596 1595 1729 1273 1271 1310 1429 1390 1155 1129 1046 1658 1724 1980 2633 2350 2446 2123 1979 1813
289 342 392 374 241 173 121 112 330 586 916 913 1076 1297 1488 1536 1597 1642 1629 1343 1266 1386 1481 1485 1389 1498 1664 1784 1652 1783 1564 1855 1518 1545 1612 1680 2090 2384 2380 2546 2230 1732 2569
282 292 356 409 345 177 195 183 175 311 632 882 1106 1228 1392 1521 1589 1573 1674 1676 1483 1304 1439 1528 1544 1689 1542 1553 1585 1594 1518 2053 2127 1934 1731 1821 2022 1832 1903 1835 2183 2359 2021
281 272 367 447 400 320 291 240 172 156 236 543 783 837 1081 1416 1580 1530 1593 1645 1672 1629 1622 1639 1542 1709 1746 1873 1853 2023 2120 1892 1913 2065 1785 1709 1606 1742 2096 1700 1509 1556 1866
331 274 319 445 460 478 419 414 282 206 131 167 378 624 764 1020 1460 1529 1561 1526 1567 1597 1723 1705 1567 1474 1331 1404 1371 1548 2063 2150 1798 1703 1533 1230 1186 1072 1147 1402 1573 1291 1677
308 307 338 317 337 315 341 365 411 353 288 216 143 199 489 697 720 962 1440 1614 1492 1430 1553 1741 1658 1185 901 687 701 782 1085 1655 1826 1392 909 837 1554 1661 1300 1546 1182 1203 1098
390 404 428 406 324 283 218 193 255 305 356 331 249 199 68 380 358 346 529 1310 1675 1611 1489 1608 1650 1445 1326 1544 1184 620 521 504 668 1124 1117 1104 1206 1434 1754 1738 1408 1519 1382
365 389 357 519 449 348 312 222 184 214 261 346 339 323 273 171 22 38 49 632 1539 1680 1713 1635 1580 1569 1704 1511 1609 1705 1683 1598 1408 948 1011 1138 1425 1719 1810 1720 1790 1572 1587
39 75 159 463 597 590 529 474 334 213 232 284 372 391 360 269 37 0 0 238 724 1377 1544 1584 1604 1467 1448 946 1124 1358 1516 1444 1201 1088 952 993 862 741 784 1097 1061 1029 821
0 0 3 60 149 411 648 668 605 411 247 281 287 377 420 404 239 0 0 0 53 268 918 1364 1037 1085 1250 759 643 833 1117 921 1032 1138 1430 1030 673 808 469 641 1090 1036 960
0 0 0 0 7 29 91 380 558 611 500 414 373 353 367 386 404 69 0 41 114 92 52 62 290 375 174 260 139 529 702 977 1066 1280 1184 1167 1274 1392 1422 1235 1092 1170 1104
0 0 0 0 0 20 62 125 265 561 624 651 630 634 610 517 219 112 0 0 184 361 477 427 455 97 39 1 0 7 121 511 949 854 897 731 747 901 986 1205 1418 1463 1236
0 0 0 0 0 0 0 46 162 156 583 624 730 695 875 1063 862 231 4 0 0 78 519 787 675 516 233 34 34 27 5 304 643 822 828 554 603 895 1119 1238 1320 1518 1736
0 0 0 0 0 0 0 0 41 163 309 614 773 966 866 1019 1245 1194 382 38 2 0 25 424 571 536 514 658 576 114 197 655 730 834 771 625 811 1096 1097 1255 1327 1391 1358
0 0 0 0 0 0 0 0 0 9 34 413 721 949 1073 1228 1416 1478 1312 668 422 200 231 424 718 770 817 950 920 1029 1131 1015 856 896 990 905 922 1050 1158 1285 1388 1464 1368
0 0 0 0 0 0 0 0 0 0 0 0 17 578 1407 1155 1212 1133 913 646 446 203 206 806 873 778 883 912 979 889 781 777 1193 1092 932 889 902 1036 1215 1350 1432 1442 1635
0 0 0 0 0 0 0 0 0 0 0 0 0 160 482 1027 934 763 593 389 147 83 547 802 923 954 826 861 935 946 785 811 900 1101 827 958 1177 1402 1475 1477 1562 1231 1308
0 0 0 0 0 0 0 2 0 0 0 0 0 64 199 312 599 561 340 103 159 55 682 923 998 1066 1157 1192 1074 907 841 854 1108 1365 1448 1742 1887 1908 1646 1442 1386 1424 1122
0 0 0 0 0 0 3 1 0 0 0 1 0 133 260 183 98 17 54 577 927 780 479 794 1047 1329 1442 1726 1511 1095 985 1050 1139 1387 1733 1906 1843 1767 1552 1440 1593 1319 1038
0 0 0 0 0 0 2 0 0 0 1 3 3 82 125 89 473 221 113 289 870 1406 1500 750 807 967 1302 1409 1441 1419 1169 1161 1240 1513 1704 1784 1768 1737 1510 1443 1557 1654 1543
0 1 0 2 1 0 0 1 3 0 0 3 5 1 1 2 237 284 279 156 171 272 272 413 117 49 38 53 46 68 93 107 96 139 307 611 557 702 768 840 895 1169 1261
3 1 1 2 0 2 1 2 4 1 2 4 4 4 1 2 2 2 3 10 6 5 8 8 6 4 4 2 0 0 0 0 1 2 4 5 4 4 4 16 46 114 155
3 2 2 1 1 4 2 4 6 5 6 4 4 4 4 10 11 9 8 8 5 4 6 4 7 7 4 9 11 8 3 2 3 1 0 1 2 1 2 2 1 1 7
2 3 3 4 5 6 5 3 5 6 6 5 4 6 10 12 13 11 10 9 5 6 7 6 8 9 10 8 12 9 6 1 4 4 1 0 0 0 0 0 1 0 0
2 3 4 4 5 6 6 6 4 4 4 6 6 7 7 7 7 7 6 7 6 6 5 5 4 4 6 7 6 2 0 0 0 0 0 3 3 4 5 4 0 0 0
1 1 1 2 4 4 4 5 4 4 4 4 4 5 5 6 4 5 4 5 5 5 4 4 2 1 0 0 0 0 0 0 0 1 1 0 0 0 0 0 1 1 1

GFSGL_con_mlcape_093.txt.gz
CAPE
1801 1792 1778 1809 1892 2068 1810 1556 1361 933 1117 1227 1282 1366 1497 1535 1747 1709 1560 1683 1444 1579 1698 1365 1688 1685 1564 1004 744 591 669 760 761 645 1053 1266 2426 2263 2714 2998 2680 2344 1526
1637 1785 1737 1766 1779 1782 1908 1706 1552 1494 1262 1205 1450 1866 1973 1822 2038 1952 1618 932 1628 1558 1459 1558 1400 1306 1891 1978 1423 1251 1072 1457 1481 1345 1091 1015 1343 2072 2430 2732 2409 1823 1743
1273 1552 1654 1753 1824 1749 1816 1873 1614 1612 1464 1064 1553 1731 1695 1604 1688 2055 1646 1308 1321 1251 1385 1320 1340 1479 1616 1441 1662 1109 961 1468 1462 1464 1324 1245 1179 1286 1514 2078 2450 1731 1879
1212 1336 1591 1769 1892 1899 1925 1952 1805 1727 1727 1487 1456 1717 1661 1674 1689 1715 1824 1773 1785 1434 1454 1445 1315 1340 1440 1788 1844 1885 1771 1597 1339 1205 1146 1088 1087 1244 1450 1472 1226 764 906
925 1162 1497 1711 1904 1998 2057 2058 1848 1879 1784 1867 1680 1449 1479 1515 1532 1771 1616 1762 2068 2025 1841 1750 1553 1373 1268 1424 1254 1731 1642 1545 1231 1150 1007 986 1029 1412 1435 1176 823 727 891
640 852 1084 1165 1746 1886 1955 1991 2021 1965 1995 1983 1881 1620 1238 716 660 1020 1532 1668 1841 2111 2232 2431 2388 2100 1506 1247 993 641 854 1813 2048 1018 394 293 699 609 315 489 741 550 587
83 101 353 1005 965 1180 1537 1800 1951 2071 2001 2032 1923 1822 1627 1368 356 347 818 1337 1674 1986 2217 2432 2156 1410 1675 2080 1609 897 411 247 301 837 1310 1188 968 1198 1366 1662 903 1427 1154
0 0 1 48 395 859 957 1239 1364 1762 1961 2043 2079 1957 1983 1836 1020 292 120 997 1321 1657 1971 2168 2162 2004 2121 2332 2197 2147 2217 2019 1558 932 847 1005 1408 1684 1820 1687 1572 1917 1795
0 0 0 0 2 33 548 913 909 1065 1359 1545 1813 1926 2092 1996 1419 851 278 254 481 1202 1763 1953 2176 2470 2362 1535 1744 2204 2221 2257 1380 1685 1723 1714 1686 1522 1264 1032 658 272 118
0 0 0 0 0 4 9 242 650 1233 1528 1371 1239 1461 1667 1820 1875 1236 623 761 467 431 458 1118 1315 1789 1996 1855 1715 1870 2157 2092 1838 1027 1167 922 735 809 542 644 962 705 377
0 0 0 0 0 0 0 35 358 732 917 1319 1550 1528 1446 1560 1778 1196 912 1143 905 740 658 560 429 542 516 853 1211 2038 2131 2244 1958 1415 1202 911 660 768 1646 1849 1789 1299 742
0 0 0 0 0 0 0 0 11 169 364 898 961 1179 1410 1787 1322 1183 802 750 1195 1040 989 800 755 69 4 59 208 591 863 1323 1442 952 656 364 103 78 212 554 1554 2084 1808
0 0 0 0 0 0 0 0 0 1 41 113 752 975 1049 1227 1018 1246 892 359 490 773 1109 1084 640 233 61 0 0 34 59 410 668 728 692 638 479 125 112 392 617 1973 2670
0 0 0 0 0 0 0 0 0 0 4 3 0 49 142 652 1247 1012 1373 646 136 77 315 540 512 426 332 455 624 184 79 408 524 649 697 785 767 310 242 413 382 372 524
0 0 0 0 0 0 0 0 0 0 0 0 0 0 0 0 0 0 0 26 24 336 239 660 839 686 550 723 934 1026 1209 925 680 648 858 965 786 459 323 384 409 388 380
13 2 0 0 0 0 0 0 0 0 0 0 0 0 0 0 0 0 0 0 0 0 176 614 888 1015 1161 1192 1158 1230 1473 1353 1294 1185 957 911 922 764 650 656 668 629 494
20 12 9 0 0 0 0 0 0 0 0 0 0 0 0 0 0 0 0 0 0 0 38 651 1284 949 1057 1276 1663 1697 1703 1679 1557 1080 1195 1353 1215 1159 969 868 857 917 704
4 0 0 3 0 0 0 0 0 0 0 0 0 0 0 0 0 0 0 0 0 0 45 751 1199 1168 909 1125 1322 1621 1742 1883 1869 1643 1337 1354 1375 1000 722 704 703 620 543
3 0 2 9 8 2 0 0 0 0 0 0 0 0 0 0 0 0 0 0 0 6 149 176 496 702 1013 924 1207 1616 1778 1745 1581 1445 1439 1386 1413 1435 1144 739 508 371 621
2 2 4 4 6 8 3 0 0 0 0 0 0 0 0 0 0 0 0 3 0 0 16 191 234 407 519 504 1183 1502 1662 1622 1379 1181 1001 1149 1255 1130 1226 1345 1487 1567 1647
5 0 1 0 0 12 18 10 3 0 0 0 0 0 0 0 0 0 1 0 0 0 1 0 34 48 128 779 963 1188 1257 1184 1031 791 1008 1237 1361 1259 1253 1310 1351 1163 1527
8 5 6 0 0 0 0 2 12 11 1 0 0 0 0 0 0 0 2 2 4 6 3 2 4 4 0 3 4 33 117 112 98 0 0 1 43 131 111 220 214 272 502
8 3 2 5 3 0 1 0 0 2 5 11 3 1 1 3 1 3 5 7 7 4 5 5 4 4 7 4 8 5 3 1 2 0 0 4 0 0 12 5 28 47 25
5 5 5 2 2 6 6 5 5 5 2 2 1 1 2 1 3 7 7 7 7 6 5 4 4 5 5 6 7 5 3 2 4 4 4 4 3 1 2 0 0 0 0
6 4 5 3 2 2 2 3 4 4 4 5 1 2 2 3 6 6 6 5 5 4 4 6 5 7 6 4 2 2 0 1 0 2 3 1 1 0 0 0 0 0 0
3 1 1 2 1 2 2 4 4 6 3 2 1 2 3 4 5 5 5 4 4 4 4 5 4 2 1 0 0 0 0 0 1 1 1 1 1 0 0 0 0 0 0

GFSGL_con_mlcape_096.txt.gz
CAPE
1853 1920 1599 1887 2070 1845 1981 1347 923 1273 967 544 642 850 1516 1442 1488 1748 1395 1268 1091 1162 1509 1363 1327 1701 1256 1643 2112 1900 1259 741 1436 1622 1544 1745 1414 1548 1887 2482 2652 2755 2308
1914 2122 2019 1983 1880 2061 1847 2052 1692 1286 1403 1035 667 568 1452 1684 1643 1401 1557 1459 1219 1228 1563 1366 1359 1585 1537 1764 1285 775 1193 938 831 743 869 523 758 1182 1942 2552 2365 2417 2078
1675 1943 1762 1999 1897 1771 2125 2076 2185 1891 1817 1374 1687 1658 1767 1689 1820 1692 1372 1675 1324 1684 1773 1600 1489 1669 1763 1391 1884 1591 1720 2155 1803 1820 1606 1892 1160 1102 1178 1453 2148 2057 2274
245 689 1641 1663 1858 2008 1947 2124 2089 2202 1978 1931 1466 1696 2213 1663 1535 1931 1671 1889 1484 1500 1540 1568 1871 1643 1553 1717 1556 1595 1603 1492 1421 1314 1009 1073 1283 1248 1863 2017 1517 787 792
205 287 469 661 1475 1768 1977 2189 2107 2086 2206 2057 1954 1931 2047 2106 1909 1840 1710 1890 1685 1594 1592 2182 1790 1684 1758 1767 1652 1654 1750 1755 1634 1511 1788 1658 1188 871 614 798 889 1214 835
1 1 56 414 569 1352 1558 1592 1760 2049 2158 2222 2152 2064 1889 1994 994 859 1911 1661 1972 1822 2008 1764 1506 2155 1897 1162 1074 961 905 1192 1468 1883 1822 454 216 713 866 922 756 384 199
0 0 0 88 274 144 931 1167 1299 1464 1751 1974 2286 2210 2170 1925 1320 366 531 1769 1714 1750 1800 2046 2310 1846 1771 1835 1145 1006 805 338 246 262 407 376 531 456 666 902 1129 1277 965
0 0 0 0 6 107 304 592 854 983 1225 1503 1675 1912 2202 2250 1939 1137 527 555 1353 1507 1952 1959 1814 1819 1774 1974 2257 2220 1731 1547 1224 575 318 200 214 390 878 1063 1166 1699 1913
0 0 0 0 0 0 0 45 295 662 1022 1159 1315 1590 1795 2049 2036 1672 1099 766 511 1148 1448 1555 1875 2315 2113 1788 1520 1691 2282 2739 2551 2051 1761 1330 947 827 1081 1574 1244 828 624
0 0 0 0 0 0 0 0 17 258 832 1121 1345 1700 1934 1853 1919 1844 1257 1160 1091 692 573 1082 1372 1459 1531 2029 2415 1987 1456 1242 1931 2455 1590 916 968 1184 1106 1215 1265 894 752
0 0 0 0 0 0 0 0 0 6 243 589 853 1148 1399 1726 1755 1314 1028 1551 1487 1293 1185 954 831 721 630 458 714 1619 2047 1961 1799 1853 1935 1804 1452 1297 1281 996 741 697 664
0 0 0 0 0 0 0 0 0 0 1 264 447 515 723 924 1033 1166 962 948 1435 1366 1519 1360 1356 718 296 268 105 61 287 915 1559 1609 1528 1334 1028 921 894 657 759 1099 1190
0 0 0 0 0 0 0 0 0 0 0 0 3 37 351 638 726 803 540 395 229 446 1002 1291 1111 1017 515 252 198 66 0 35 376 685 935 1008 923 741 551 372 191 453 1234
0 0 0 0 0 0 0 0 0 0 0 0 0 0 0 0 50 0 8 0 2 1 31 305 407 475 632 601 443 471 80 75 94 198 328 473 475 468 542 599 390 96 636
0 0 0 0 0 0 0 0 0 0 0 0 0 0 0 0 0 0 0 0 0 0 0 0 67 563 914 1019 891 733 775 374 240 352 431 500 626 742 723 654 460 212 349
2 2 0 0 0 0 1 0 0 0 0 0 0 0 0 0 0 0 0 0 0 0 0 0 0 150 676 1139 1317 1137 812 704 960 866 857 861 866 902 945 958 562 214 218
3 0 0 0 0 0 0 0 0 0 0 0 0 0 0 0 0 0 0 0 0 0 0 0 0 15 454 701 939 1312 1384 1378 1379 1312 1284 1254 1272 1068 929 816 642 668 556
1 0 0 1 1 0 0 1 3 1 0 0 0 0 0 0 0 0 0 0 0 0 0 0 0 32 612 974 1371 1205 718 966 1270 1155 684 458 4 813 1207 1125 1005 755 556
0 1 1 0 0 0 0 0 0 0 0 0 0 0 0 0 0 0 0 0 0 0 0 0 3 35 317 756 789 811 552 766 807 783 786 887 786 921 707 669 593 491 464
0 0 2 1 1 0 0 0 0 0 5 0 0 0 0 0 0 2 0 0 0 0 0 0 0 3 39 403 512 570 514 484 403 330 552 673 808 628 624 571 740 666 523
1 0 0 0 2 2 0 0 0 0 0 1 8 0 0 6 7 0 0 0 0 0 1 0 0 2 3 4 2 54 250 209 120 123 162 197 69 14 0 0 8 0 341
4 1 0 1 4 4 6 3 0 0 0 0 0 12 4 2 15 2 0 0 0 2 3 3 4 5 5 2 3 2 2 0 1 17 26 2 0 0 0 0 0 0 0
0 1 1 1 1 1 6 8 3 1 1 1 0 0 0 0 0 1 1 0 0 0 3 5 5 5 6 6 4 3 6 5 3 2 0 3 0 0 0 0 0 0 4
0 1 4 3 2 2 1 5 5 3 2 0 0 0 0 0 3 3 0 0 0 2 4 4 5 5 3 2 3 2 3 1 2 2 3 3 3 0 2 3 1 0 0
0 1 2 1 2 2 4 4 5 3 3 1 2 5 1 1 1 0 0 1 3 3 3 2 3 3 3 2 1 1 0 0 1 0 1 1 0 0 0 0 0 0 0
0 3 2 1 2 3 2 2 3 2 2 3 5 6 5 1 0 0 1 2 2 2 2 3 2 1 0 0 0 0 0 0 0 0 0 0 0 0 0 0 0 0 0

GFSGL_con_mlcape_102.txt.gz
CAPE
578 837 995 815 1149 1068 562 834 528 1046 952 953 730 462 622 1113 1130 1056 883 669 696 728 541 876 706 908 943 1516 1328 876 942 1035 845 804 1149 1135 1326 1088 1241 1072 1219 1305 1593
552 574 743 690 792 737 684 1282 1146 824 713 712 587 569 524 976 1062 959 820 816 893 882 390 590 703 827 749 1112 1069 509 938 1192 1088 938 1173 1174 1045 966 1200 1007 1232 1540 1237
176 208 256 369 668 802 788 742 1250 903 658 579 374 262 595 764 1043 1251 916 777 744 873 933 664 430 461 404 357 507 621 620 744 905 786 717 997 853 965 1005 943 749 528 272
59 139 70 85 330 346 687 733 798 1232 926 642 520 225 530 542 905 1150 1249 1139 1072 1056 1072 879 842 774 596 521 777 845 957 900 804 727 785 938 996 1291 1373 1088 201 58 11
50 45 97 1 155 151 57 327 962 966 1174 1074 839 765 752 578 557 1242 1350 1179 1188 1083 1043 1342 1278 1225 1143 1001 1017 1036 1051 1059 1044 951 754 791 918 883 817 937 420 4 15
49 100 161 152 11 0 22 11 237 880 1117 1090 1269 1408 1352 1355 1609 1418 1471 1418 1291 1031 1020 1154 1351 1460 1562 1527 1317 1518 1604 1273 1214 1061 923 735 241 7 6 0 0 21 96
1 6 32 142 97 69 33 8 153 394 574 769 1201 1263 1246 1302 1256 1067 990 1415 1463 1350 1319 1318 1212 1211 1129 1140 1288 1333 968 1107 1179 1092 941 740 603 394 153 142 162 300 329
0 0 0 0 7 39 58 85 201 312 479 582 707 837 1110 1481 1582 1468 1188 907 898 952 1030 1180 1295 1351 1253 1170 1160 1252 1454 1484 1124 840 838 921 864 879 646 750 548 592 710
0 0 0 0 0 0 0 0 4 54 102 225 446 655 700 864 1008 1012 982 814 841 849 826 877 1004 1247 1529 1413 1443 1345 1250 1251 1383 1297 1119 1125 1134 1095 1135 924 1193 1027 732
0 0 0 0 0 0 0 0 0 0 0 0 8 79 471 529 587 725 724 767 787 862 850 837 802 882 693 665 881 1062 1019 875 904 828 1035 960 1035 1098 1002 759 1195 954 720
0 0 0 0 0 0 0 0 0 0 0 0 0 50 54 85 206 321 324 536 668 742 772 813 803 703 419 280 313 583 677 620 662 725 861 990 1081 1090 1057 927 754 918 738
0 0 0 0 0 0 0 0 0 0 0 0 0 0 0 0 0 8 72 79 76 424 576 686 674 417 341 460 397 401 346 252 267 480 520 589 595 724 915 1053 967 810 825
0 0 0 0 0 0 0 0 0 0 0 0 0 0 0 0 0 0 0 0 0 0 4 5 0 0 11 94 342 440 256 323 428 425 483 469 404 370 360 517 649 758 793
0 0 0 0 0 0 0 0 0 0 0 0 0 0 0 0 0 0 0 0 0 0 0 0 0 0 0 0 0 0 0 0 48 250 397 384 306 276 325 258 304 453 446
0 0 0 0 0 0 0 0 0 0 0 0 0 0 0 0 0 0 0 0 0 0 0 0 0 0 0 0 0 0 0 0 25 148 333 463 475 374 305 176 144 216 290
0 0 0 0 0 0 0 0 0 0 0 0 0 0 0 0 0 0 0 0 0 0 0 0 0 0 0 0 0 0 0 2 63 295 445 465 456 417 387 300 215 229 240
0 0 0 0 0 0 0 0 0 0 0 0 0 0 0 0 0 0 0 0 0 0 0 0 0 0 0 0 0 0 0 7 120 203 387 506 555 511 489 458 451 437 451
0 0 0 0 0 0 0 0 0 0 0 0 0 0 0 0 0 0 0 0 0 0 0 0 0 0 0 0 0 0 0 0 0 0 1 211 357 359 403 416 478 447 421
0 0 0 0 0 0 0 0 0 0 0 0 0 0 0 0 0 0 0 0 0 0 0 0 0 0 0 0 0 0 0 0 1 3 3 3 0 152 221 249 246 155 121
0 0 0 0 0 0 0 0 0 0 0 0 0 0 0 0 0 0 0 0 2 1 1 1 2 0 0 0 0 0 0 0 0 1 3 2 2 1 4 62 77 80 0
0 0 0 0 0 0 0 0 0 0 0 0 0 0 0 0 0 0 0 0 0 0 0 0 0 0 0 0 1 0 0 0 1 1 3 4 4 2 4 7 38 72 27
0 0 0 0 0 0 0 0 0 0 0 0 0 0 0 0 0 0 0 0 0 5 0 0 0 0 0 0 0 1 0 0 0 2 2 4 4 8 7 6 2 1 0
0 0 0 0 0 0 0 0 0 0 1 0 0 0 0 0 1 0 0 1 3 6 2 0 0 0 0 0 0 1 0 0 2 4 3 6 6 7 8 7 7 4 1
0 0 0 0 0 0 1 1 0 0 0 0 1 1 2 3 1 5 3 5 2 0 2 0 0 0 0 0 1 2 4 3 4 7 7 5 6 7 8 7 6 5 6
0 0 0 0 0 0 0 0 0 0 0 1 1 3 5 0 2 6 9 10 17 9 0 0 0 0 0 0 0 0 1 0 0 0 2 6 3 4 7 7 5 5 6
0 0 0 0 0 0 0 0 0 0 1 2 2 1 1 3 5 3 3 2 5 5 2 1 1 0 1 0 0 0 0 0 0 0 0 1 2 4 6 6 6 5 3

GFSGL_con_mlcape_105.txt.gz
CAPE
496 492 630 894 843 630 478 372 338 396 482 671 826 617 691 795 1040 1033 942 800 510 533 610 596 793 805 876 1284 1366 889 963 939 760 808 1006 1163 1138 898 1035 855 937 798 436
446 549 542 594 741 733 675 603 731 961 805 797 729 629 491 491 900 1076 961 934 843 391 831 518 503 688 776 773 1045 814 906 1022 897 634 654 672 667 766 948 969 1083 378 1
129 127 144 238 287 403 389 449 577 664 749 632 670 627 513 502 661 912 971 910 847 789 900 853 846 640 441 386 279 363 540 834 871 812 633 716 833 920 1031 1142 1037 533 58
44 0 28 94 75 119 95 300 539 783 760 649 642 529 430 331 606 748 896 1137 1045 941 802 725 883 747 812 760 573 637 756 815 839 861 823 755 758 851 697 562 147 6 0
11 4 0 24 0 30 55 8 79 301 769 884 814 715 502 264 437 532 835 966 1156 1166 1114 1152 1026 900 973 1040 1128 1070 1037 981 1001 983 1035 959 850 682 453 291 57 12 59
56 43 84 29 17 17 0 0 21 98 345 744 1133 1094 1064 942 803 715 510 841 1182 1102 1017 1087 963 958 1081 1110 1044 1284 1044 1091 1068 1062 939 827 901 877 657 596 463 383 312
2 15 74 179 144 123 90 25 3 84 241 380 615 822 1031 1199 1281 1292 1223 1259 1171 1166 1371 1283 1072 1147 1065 1165 1125 949 838 844 966 1113 1186 1123 1010 847 611 616 637 592 588
0 0 0 0 15 64 93 91 83 91 105 231 367 471 788 902 896 874 949 1002 1033 1029 1098 1194 1268 1075 920 965 1121 1222 1117 1030 1009 814 885 878 803 812 594 717 642 529 533
0 0 0 0 0 0 0 0 0 0 3 22 89 134 293 551 583 516 491 747 836 910 799 818 916 976 940 821 755 792 1079 1166 1192 1050 928 915 759 598 594 585 879 923 1121
0 0 0 0 0 0 0 0 0 0 0 0 0 90 161 113 57 90 156 392 478 637 709 680 588 748 805 716 802 751 631 648 702 713 732 666 642 715 667 444 729 724 734
0 0 0 0 0 0 0 0 0 0 0 0 0 0 0 0 0 0 21 172 255 368 459 585 519 134 71 191 227 452 663 467 316 254 280 404 536 681 688 535 441 569 620
0 0 0 0 0 0 0 0 0 0 0 0 0 0 0 0 0 0 0 0 0 0 13 40 44 2 0 0 0 90 80 77 273 481 600 646 606 585 586 657 607 454 514
0 0 0 0 0 0 0 0 0 0 0 0 0 0 0 0 0 0 0 0 0 0 0 0 0 0 0 0 0 0 0 0 2 11 124 253 235 297 299 257 260 432 442
0 0 0 0 0 0 0 0 0 0 0 0 0 0 0 0 0 0 0 0 0 0 0 0 0 0 0 0 0 0 0 0 0 0 0 0 154 281 364 289 298 248 188
0 0 0 0 0 0 0 0 0 0 0 0 0 0 0 0 0 0 0 0 0 0 0 0 0 0 0 0 0 0 0 0 0 0 6 39 120 284 410 370 289 231 192
0 0 0 0 0 0 0 0 0 0 0 0 0 0 0 0 0 0 0 0 0 0 0 0 0 0 0 0 0 0 0 0 1 1 11 95 200 231 293 325 325 369 376
0 0 0 0 0 0 0 0 0 0 0 0 0 0 0 0 0 0 0 0 0 0 0 0 0 0 0 0 0 0 0 0 0 0 0 1 1 0 174 299 289 270 267
0 0 0 0 0 0 0 0 0 0 0 0 0 0 0 0 0 0 0 0 0 0 0 0 0 0 0 0 1 0 0 0 0 0 0 0 0 0 1 4 65 174 243
0 0 0 0 0 0 0 0 0 0 0 0 0 0 0 0 0 0 0 0 0 0 2 2 1 1 0 0 0 0 0 0 0 0 0 0 0 0 0 1 1 2 7
0 0 0 0 0 0 0 0 0 0 0 0 0 0 0 0 0 0 0 0 0 0 0 1 0 0 0 0 0 0 0 0 0 0 0 0 0 0 0 3 4 5 2
0 0 0 0 0 0 0 0 0 0 0 0 0 0 0 0 0 0 0 0 0 0 0 0 5 0 0 0 0 0 0 0 0 0 0 0 0 0 1 0 1 2 5
0 0 0 0 0 0 0 0 0 0 0 0 0 0 0 0 0 0 0 0 1 2 1 4 6 7 0 0 0 0 0 0 0 0 0 1 0 0 0 0 0 2 6
0 0 0 0 0 0 0 0 0 0 0 0 0 0 0 0 0 0 1 1 1 4 8 5 0 0 4 1 1 0 1 1 1 2 2 0 0 0 0 0 0 0 3
0 0 0 0 0 0 0 0 0 0 0 0 0 0 0 1 1 2 2 1 2 6 12 14 4 6 6 1 0 0 1 2 2 3 4 4 2 0 1 1 1 1 5
0 0 0 0 0 0 0 0 0 0 0 0 0 0 1 0 0 2 2 2 1 2 2 1 8 9 5 3 0 0 0 0 0 1 2 3 5 0 1 4 1 1 6
0 0 0 0 0 0 0 0 0 0 0 0 0 0 0 1 1 1 2 2 2 3 3 4 5 4 4 4 3 1 0 0 0 0 0 0 3 3 5 3 3 4 6

GFSGL_con_mlcape_108.txt.gz
CAPE
261 316 358 481 407 246 296 271 211 150 312 258 502 600 711 658 665 833 780 768 736 613 554 591 600 684 774 930 1356 1000 913 814 722 793 784 894 718 725 835 1020 997 1121 251
218 426 466 509 547 580 551 545 388 353 462 437 403 534 550 563 637 744 871 882 834 777 660 557 705 621 710 705 843 968 826 854 698 296 513 629 539 862 1034 1091 1237 973 298
102 172 260 262 294 318 353 372 318 395 422 436 472 411 447 515 420 598 775 963 790 790 774 733 881 762 794 550 424 464 444 696 848 959 952 884 907 878 926 679 347 152 157
5 0 28 61 53 64 21 73 156 409 534 485 479 481 479 434 456 485 662 698 851 954 851 797 746 637 774 811 836 830 671 754 816 901 954 938 965 1079 837 730 815 643 500
0 4 0 0 75 0 0 0 34 76 336 569 554 599 552 450 374 212 452 760 821 911 986 1046 1089 1017 942 809 895 926 921 948 1062 1135 1152 1081 967 806 1030 853 719 699 739
36 1 37 106 19 18 0 0 0 6 153 332 466 781 826 827 743 547 406 486 516 479 859 1082 996 965 1040 884 803 831 1025 924 879 809 962 807 769 1021 903 787 627 586 599
0 0 0 43 108 107 78 5 8 23 172 255 376 498 593 801 787 718 696 848 1050 1053 1094 1039 1008 1229 1202 1206 1119 945 873 817 780 1085 1002 918 1016 1057 861 763 577 352 528
0 0 0 0 0 0 0 0 13 22 32 70 74 84 260 392 224 245 439 703 881 1034 1109 1203 1135 1087 1117 1131 1010 896 813 852 1008 789 852 1023 1026 1026 830 810 583 406 372
0 0 0 0 0 0 0 0 0 0 0 0 0 113 158 67 0 0 69 309 502 672 675 637 636 771 819 596 768 851 789 795 758 628 749 794 679 467 363 430 579 590 717
0 0 0 0 0 0 0 0 0 0 0 0 6 0 0 0 0 0 0 128 172 226 355 462 357 159 0 19 221 605 788 831 838 822 742 581 373 420 229 191 484 614 684
0 0 0 0 0 0 0 0 0 0 0 0 0 0 0 0 0 0 0 0 0 0 0 0 8 0 0 0 0 0 170 116 171 198 251 353 526 655 729 597 430 510 667
0 0 0 0 0 0 0 0 0 0 0 0 0 0 0 0 0 0 0 0 0 0 0 0 0 0 0 0 0 0 0 0 1 40 143 256 260 243 212 205 307 325 341
0 0 0 0 0 0 0 0 0 0 0 0 0 0 0 0 0 0 0 0 0 0 0 0 0 0 0 0 0 0 0 0 0 0 0 0 0 0 65 205 268 257 328
0 0 0 0 0 0 0 0 0 0 0 0 0 0 0 0 0 0 0 0 0 0 0 0 0 0 0 0 0 0 0 0 0 0 0 6 37 81 121 186 259 311 398
0 0 0 0 0 0 0 0 0 0 0 0 0 0 0 0 0 0 0 0 0 0 0 0 0 0 0 0 0 0 0 0 0 1 1 1 1 4 37 145 191 195 204
0 0 0 0 0 0 0 0 0 0 0 0 0 0 0 0 0 0 0 0 0 0 0 0 0 0 0 0 0 0 0 0 0 0 0 0 0 0 1 0 49 34 64
0 0 0 0 0 0 0 0 0 0 0 0 0 0 0 0 0 0 0 0 0 0 0 0 0 0 0 0 0 0 0 0 0 0 0 0 0 0 0 0 1 2 4
0 0 0 0 0 0 0 0 0 0 0 0 0 0 0 0 0 0 0 0 0 0 0 0 1 1 4 0 0 0 0 0 0 0 0 0 0 0 0 0 0 0 3
0 0 0 0 0 0 0 0 0 0 0 0 0 0 0 0 0 0 0 0 0 0 0 0 0 5 7 0 0 0 0 0 0 0 0 1 0 0 0 0 0 0 0
0 0 0 0 0 0 0 0 0 0 0 0 0 0 0 0 0 0 0 0 0 0 0 0 0 0 0 3 4 1 0 0 0 0 0 0 1 1 0 0 1 0 0
0 0 0 0 0 0 0 0 0 0 0 0 0 0 0 0 0 0 0 0 0 0 1 1 1 2 2 1 4 6 3 3 0 0 0 1 1 0 1 3 2 1 1
0 0 0 0 0 0 0 0 0 0 0 0 0 0 0 0 0 0 0 0 0 1 2 2 1 3 6 4 0 6 3 3 6 6 3 4 3 3 0 0 2 1 0
0 0 0 0 0 0 0 0 0 0 0 0 0 0 0 0 0 0 1 1 1 2 3 4 3 7 6 11 15 15 12 7 5 5 2 4 4 1 1 2 0 1 1
0 0 0 0 0 0 0 0 0 0 0 0 0 0 0 0 1 0 0 0 0 0 4 5 5 7 9 10 5 5 7 8 6 6 4 2 2 2 2 2 1 0 0
0 0 0 0 0 0 0 0 0 0 0 0 1 0 0 0 0 0 1 1 2 2 7 6 7 5 5 7 3 2 1 1 1 2 3 3 2 2 2 1 1 3 5
0 0 0 0 0 0 0 0 0 0 0 0 0 0 0 0 0 0 1 1 2 2 3 5 4 5 4 4 3 2 0 0 0 0 1 3 4 4 2 3 2 4 4

GFSGL_con_mlcape_114.txt.gz
CAPE
607 698 524 738 726 913 849 1035 967 1228 1517 1138 1347 1312 1317 1212 1326 1358 1404 1363 1750 1453 1594 1769 1611 1667 1020 848 1000 1149 1100 987 1055 868 968 938 1794 1846 1775 1986 1149 728 339
863 942 888 799 898 789 864 1126 1272 1240 1395 1553 1554 1504 1133 1161 1381 1188 1160 947 1427 1357 1361 1437 1385 1020 1535 1351 930 887 976 1247 1223 1067 1003 1041 1363 1580 1598 2124 1590 879 904
971 830 770 680 834 816 968 645 913 1103 1184 1518 1623 1464 1481 1469 1565 1304 1364 1250 1267 1333 1379 1344 1416 1203 1721 1162 1458 1364 956 794 812 794 815 737 847 1110 1315 1256 1032 1050 566
907 919 1030 988 1024 894 903 987 934 1222 1099 1061 1094 1288 1362 1099 1367 1532 1678 1566 1353 1290 1273 1141 1253 1278 1262 1510 1412 1449 1374 1363 992 1244 928 889 675 947 1197 672 271 387 610
212 413 582 904 1037 1224 1276 1158 1134 1258 1050 1132 1207 1162 1298 1355 1281 1503 1559 1527 1335 1172 1171 1137 1102 1126 1131 1007 1150 1177 1404 1066 703 557 446 438 443 842 540 385 371 404 496
41 106 207 504 493 531 704 880 872 944 1157 1235 1309 1299 1315 1124 452 741 1141 1475 1474 1505 1433 1442 1314 1099 1048 774 751 793 966 1448 1448 1115 488 419 962 1157 772 843 846 724 644
184 142 178 155 114 281 315 375 371 489 820 1191 1333 1394 1143 806 8 217 438 1080 1553 1716 1837 1811 1580 912 1153 1335 1046 1145 1102 775 690 1246 1259 1299 1183 1376 1343 1432 1217 1105 1055
79 71 97 37 16 23 139 259 375 461 632 759 781 708 290 0 0 0 108 1039 1348 1630 1683 1716 1802 1788 856 1258 1919 1613 1498 1477 1496 1529 1638 1735 1739 1766 1634 1554 1471 1582 1607
1 0 4 0 0 0 0 6 95 279 275 307 215 75 0 0 0 0 194 1140 1077 1156 792 497 893 436 0 9 572 1415 1687 1665 1571 1272 1049 941 809 744 628 847 770 728 752
0 0 0 1 0 0 0 2 15 112 123 6 0 0 0 0 0 0 0 196 332 282 149 54 0 0 0 0 0 330 603 888 840 642 827 1019 901 1321 994 916 1127 1105 1044
0 0 0 0 0 0 0 2 1 1 0 0 0 0 0 0 0 0 0 0 0 0 0 0 0 0 0 0 0 0 0 0 0 0 49 273 509 1009 1269 1109 1020 1129 1012
0 0 0 0 0 0 0 0 0 0 0 0 0 0 0 0 0 0 0 0 0 0 0 0 0 0 0 0 0 0 0 0 0 0 0 0 0 0 64 136 153 203 226
0 0 0 0 0 0 0 0 0 0 0 0 0 0 0 0 0 0 0 0 0 0 0 0 0 0 0 0 0 0 0 0 1 1 0 0 0 0 2 4 35 99 136
0 0 0 0 0 0 0 0 0 0 0 0 0 0 0 0 0 0 0 0 0 0 0 0 0 0 0 0 0 0 0 0 0 0 0 0 0 0 0 0 0 0 0
0 0 0 0 0 0 0 0 0 0 0 0 0 0 0 0 0 0 0 0 0 0 0 0 0 0 0 0 0 0 0 2 12 3 0 0 0 0 0 0 0 0 0
0 0 0 0 0 0 0 0 0 0 0 0 0 0 0 0 0 0 0 0 0 0 0 0 0 0 0 0 0 0 0 0 0 0 0 0 0 0 0 0 0 0 0
0 0 0 0 0 0 0 0 0 0 0 0 0 0 0 0 0 0 0 0 0 0 0 0 0 0 0 0 0 0 0 0 0 0 0 0 0 0 0 0 0 0 0
0 0 0 0 0 0 0 0 0 0 0 0 0 0 0 0 0 0 0 0 0 0 0 0 0 0 0 0 0 0 0 0 0 0 0 0 0 0 0 0 0 0 0
0 0 0 0 0 0 0 0 0 0 0 0 0 0 0 0 0 0 0 0 0 0 0 0 0 0 0 0 0 0 0 0 0 0 0 0 1 1 0 0 0 0 0
0 0 0 0 0 0 0 0 0 0 0 0 0 0 0 0 0 0 0 0 0 0 0 0 0 0 0 0 0 0 0 0 0 0 0 1 4 4 6 4 1 1 3
0 0 0 0 0 0 0 0 0 0 0 0 0 0 0 0 0 0 0 0 0 0 0 0 0 0 0 0 0 0 0 0 0 0 0 4 5 2 0 0 1 5 3
0 0 0 0 0 0 0 0 0 0 0 0 0 0 0 0 0 0 0 0 0 0 0 0 0 0 0 0 0 0 0 0 2 4 3 5 2 2 4 4 1 2 2
0 0 0 0 0 0 0 0 0 0 0 0 0 0 0 0 0 0 0 0 0 0 0 0 0 1 2 3 5 6 6 3 3 5 4 4 2 4 1 1 0 0 0
0 0 0 0 0 0 0 0 0 0 0 0 0 0 0 0 0 0 0 0 0 0 0 0 0 3 4 4 4 5 8 10 6 4 4 3 4 5 4 1 0 0 2
0 0 0 0 0 0 0 0 0 0 0 0 0 0 0 0 0 0 0 0 0 0 1 2 2 4 5 6 7 1 5 0 1 1 2 3 4 5 4 3 2 0 0
0 0 0 0 0 0 0 0 0 0 0 0 0 0 0 0 0 0 0 0 0 0 1 2 2 5 4 1 5 1 0 0 0 0 1 5 6 6 4 4 4 3 3

GFSGL_con_mlcape_117.txt.gz
CAPE
562 614 622 543 617 769 776 826 1011 1418 1821 1573 1339 1185 1185 1242 1216 1430 1617 1796 1626 1436 1513 1690 1849 1907 1568 1029 1158 915 748 726 917 747 1052 752 1029 1755 1862 1903 1450 1670 577
605 944 814 705 541 563 556 1004 1037 1227 1480 1570 1371 1337 1274 1319 1452 1483 1286 756 1088 1105 1064 1174 1285 1189 1428 1831 1159 1116 705 778 671 726 682 677 950 1352 1571 1889 1154 883 829
1179 1093 1052 940 766 561 591 778 1134 1162 1113 1207 1424 1492 1344 1475 1628 1702 1611 1366 1231 1116 1008 936 914 1106 1145 1140 1499 1600 923 1026 1308 816 747 583 780 907 1406 1329 1335 906 819
851 1058 977 1039 1018 771 476 741 866 1126 1299 1127 1536 1362 1312 1340 1415 1347 1533 1654 1371 1117 1198 1148 1068 1026 1046 1364 1619 1582 1551 1435 976 939 610 614 420 396 1323 530 128 223 565
298 652 834 952 1016 1210 1157 1015 802 984 975 1164 1072 1207 1238 1155 947 1259 1477 1507 1635 1367 1099 1079 1062 1038 1048 1183 1273 1325 1516 1432 792 491 278 97 98 1114 508 702 627 510 483
69 265 589 801 973 1049 1353 1346 1146 934 1062 1094 1172 1125 1257 656 6 251 755 1159 1258 1487 1385 1335 1292 1301 1114 892 551 451 596 1217 1749 1358 910 788 1229 1060 968 742 997 439 575
38 124 315 443 621 827 858 854 603 743 664 901 1073 1073 677 108 0 68 307 1100 1569 1521 1499 1374 1640 729 1018 1235 1075 831 777 773 769 915 1012 1219 1357 1797 1795 1874 1536 1565 1299
213 225 217 205 223 280 373 380 500 617 569 843 895 1186 128 0 0 0 108 798 1044 1152 1148 1463 1528 1804 269 503 1406 1810 1653 1600 1465 1248 1297 1608 1614 1590 1722 1873 1673 1415 1478
113 144 165 227 239 82 23 0 50 207 214 196 145 48 0 0 0 0 46 1477 1564 701 379 171 832 384 0 0 266 1074 1429 1445 1429 830 579 653 859 879 818 974 1069 998 921
0 17 48 27 19 0 0 5 86 190 86 1 0 0 0 0 0 0 0 329 669 658 588 234 0 0 0 0 0 12 380 376 0 0 26 339 605 933 1045 1079 1404 1182 1281
0 0 9 5 2 7 9 15 19 10 0 0 0 0 0 0 0 0 0 0 0 3 44 43 0 0 0 0 0 0 0 0 0 0 0 0 0 11 231 508 439 481 618
0 1 0 0 0 3 11 8 15 7 1 0 0 0 0 0 0 0 0 0 0 0 0 0 0 0 0 0 0 0 0 0 0 5 7 11 10 17 10 9 43 270 338
0 0 2 1 3 1 1 0 1 0 1 0 0 0 0 0 0 0 0 0 0 0 0 0 0 0 0 0 0 0 0 0 0 0 0 2 0 0 2 0 10 7 18
0 0 0 0 0 0 0 0 0 0 0 3 0 0 0 0 0 0 0 0 0 0 0 0 0 0 0 0 0 0 0 0 0 5 12 0 0 0 0 0 0 0 0
0 0 0 0 0 0 0 0 0 0 0 0 0 0 0 0 0 0 0 0 0 0 0 0 0 0 0 0 0 0 0 0 0 0 0 0 0 0 0 0 0 0 0
0 0 0 0 0 0 0 0 0 0 0 0 0 0 0 0 0 0 0 0 0 0 0 0 0 0 0 0 0 0 0 0 0 0 0 0 0 0 0 0 0 0 0
0 0 0 0 0 0 0 0 0 0 0 0 0 0 0 0 0 0 0 0 0 0 0 0 0 0 0 0 0 0 0 0 0 0 0 0 0 0 0 0 0 0 0
0 0 0 0 0 0 0 0 0 0 0 0 0 0 0 0 0 0 0 0 0 0 0 0 0 0 0 0 0 0 0 0 0 0 0 0 0 0 0 0 0 0 0
0 0 0 0 0 0 0 0 0 0 0 0 0 0 0 0 0 0 0 0 0 0 0 0 0 0 0 0 0 0 0 0 0 0 0 0 0 0 0 0 0 0 0
0 0 0 0 0 0 0 0 0 0 0 0 0 0 0 0 0 0 0 0 0 0 0 0 0 0 0 0 0 0 0 0 0 0 0 0 0 0 0 0 0 0 0
0 0 0 0 0 0 0 0 0 0 0 0 0 0 0 0 0 0 0 0 0 0 0 0 0 0 0 0 0 0 0 0 0 0 0 0 0 0 0 0 0 0 0
0 0 0 0 0 0 0 0 0 0 0 0 0 0 0 0 0 0 0 0 0 0 0 0 0 0 0 0 0 0 0 0 0 0 0 0 2 1 1 0 0 0 0
0 0 0 0 0 0 0 0 0 0 0 0 0 0 0 0 0 0 0 0 0 0 0 0 0 0 0 0 0 0 0 0 1 4 2 3 1 0 1 1 1 1 0
0 0 0 0 0 0 0 0 0 0 0 0 0 0 0 0 0 0 0 0 0 0 0 0 0 0 0 0 0 0 1 2 2 3 4 1 2 2 3 3 3 3 2
0 0 0 0 0 0 0 0 0 0 0 0 0 0 0 0 0 0 0 0 0 0 0 0 0 0 0 0 2 3 0 0 0 0 1 4 3 4 5 4 4 4 3
0 0 0 0 0 0 0 0 0 0 0 0 0 0 0 0 0 0 0 0 0 0 0 0 0 1 2 2 3 0 0 0 0 0 0 4 5 6 4 4 4 4 4

GFSGL_con_mlcape_123.txt.gz
CAPE
768 580 693 573 537 788 845 669 987 944 1198 1097 1125 916 631 1293 1067 838 614 856 761 1105 933 1125 1076 1297 1199 1183 1178 1337 1313 1147 857 871 1093 1035 462 332 609 1520 1737 1202 1064
1052 555 441 772 914 638 785 812 807 950 1004 984 752 884 1006 1098 942 700 1002 946 1024 640 715 1113 930 1051 922 1060 924 1210 1189 1303 1066 856 764 547 716 1052 1097 951 1132 1136 678
1073 823 418 568 764 694 435 891 828 855 786 1060 1030 1002 690 873 973 1128 889 820 1246 1020 1316 826 1016 1022 1098 1103 1012 1057 1134 1145 1063 1137 1168 984 960 1362 1026 856 858 1256 1030
316 563 406 463 476 571 660 589 631 918 802 696 846 1048 1148 976 955 971 885 781 1004 1061 931 1349 1065 1005 1178 1120 982 887 1077 766 886 920 734 529 363 648 773 672 469 654 781
202 318 222 21 46 279 380 556 754 771 669 674 545 663 794 436 159 219 531 1171 1031 761 694 1055 1135 1188 891 867 912 932 1011 679 314 209 281 348 458 661 814 1014 918 1130 1118
191 350 189 67 0 13 88 215 518 725 898 812 700 669 218 20 1 16 42 578 935 659 649 953 777 414 453 762 713 591 525 424 422 585 795 1024 948 1114 908 902 1002 972 882
211 237 184 69 7 2 29 161 198 267 618 673 471 132 4 0 0 0 5 233 824 697 804 762 726 166 81 142 391 876 703 421 500 675 749 695 794 902 1069 743 540 746 846
156 118 92 97 84 105 128 158 208 185 249 382 189 20 0 0 0 0 0 125 561 499 395 198 103 0 0 0 82 371 531 91 26 63 7 25 24 46 236 326 542 712 691
157 112 121 117 43 28 31 40 84 68 85 62 1 0 0 0 0 0 137 427 348 66 3 5 0 0 0 0 0 0 22 0 0 0 0 0 0 0 0 151 5 0 0
209 163 190 173 123 35 22 35 24 1 1 0 0 0 0 0 0 0 22 118 183 0 0 0 0 0 0 0 0 0 0 0 0 0 0 0 0 0 11 2 0 0 0
28 94 89 65 29 13 9 2 0 0 0 0 0 0 0 0 0 0 0 0 0 32 0 0 0 0 0 0 0 0 0 0 0 0 0 0 0 0 0 0 0 0 0
0 2 18 46 65 45 3 2 0 0 0 0 0 0 0 0 0 0 0 0 0 0 0 0 0 0 0 0 0 0 0 0 0 0 0 0 0 0 0 0 0 0 0
0 0 0 0 0 0 1 9 1 0 0 0 0 0 0 0 0 0 0 0 0 0 0 0 0 0 0 0 0 0 0 0 0 0 0 0 0 0 0 0 0 0 0
0 0 0 0 0 0 0 0 0 0 0 0 0 0 0 0 0 0 0 0 0 0 0 0 0 0 0 0 0 0 0 0 0 0 0 0 0 0 0 0 0 0 0
0 0 0 0 0 0 0 0 0 0 0 0 0 0 0 0 0 0 0 0 0 0 0 0 0 0 0 0 0 0 0 0 0 0 0 0 0 0 0 0 0 0 0
0 0 0 0 0 0 0 0 0 0 0 0 0 0 0 0 0 0 0 0 0 0 0 0 0 0 0 0 0 0 0 0 0 0 0 0 0 0 0 0 0 0 0
0 0 0 0 0 0 0 0 0 0 0 0 0 0 0 0 0 0 0 0 0 0 0 0 0 0 0 0 0 0 0 0 0 0 0 0 0 0 0 0 0 0 0
0 0 0 0 0 0 0 0 0 0 0 0 0 0 0 0 0 0 0 0 0 0 0 0 0 0 0 0 0 0 0 0 0 0 0 0 0 0 0 0 0 0 0
0 0 0 0 0 0 0 0 0 0 0 0 0 0 0 0 0 0 0 0 0 0 0 0 0 0 0 0 0 0 0 0 0 0 0 0 0 0 0 0 0 0 0
0 0 0 0 0 0 0 0 0 0 0 0 0 0 0 0 0 0 0 0 0 0 0 0 0 0 0 0 0 0 0 0 0 0 0 0 0 0 0 0 0 0 0
0 0 0 0 0 0 0 0 0 0 0 0 0 0 0 0 0 0 0 0 0 0 0 0 0 0 0 0 0 0 0 0 0 0 0 0 0 0 0 0 0 0 1
0 0 0 0 0 0 0 0 0 0 0 0 0 0 0 0 0 0 0 0 0 0 0 0 0 0 0 0 0 0 0 0 0 0 0 0 0 0 0 0 0 0 1
0 0 0 0 0 0 0 0 0 0 0 0 0 0 0 0 0 0 0 0 0 0 0 0 0 0 0 0 0 0 0 0 0 0 0 0 0 1 0 0 0 3 2
0 0 0 0 0 0 0 0 0 0 0 0 0 0 0 0 0 0 0 0 0 0 0 0 0 0 0 0 0 0 0 0 0 0 0 0 0 0 0 0 0 2 0
0 0 0 0 0 0 0 0 0 0 0 0 0 0 0 0 0 0 0 0 0 0 0 0 0 0 0 0 0 0 0 0 0 0 0 0 0 0 0 0 0 0 0
0 0 0 0 0 0 0 0 0 0 0 0 0 0 0 0 0 0 0 0 0 0 0 0 0 0 0 0 0 0 0 0 0 0 0 0 0 0 0 0 0 1 0